Location: Centerville
(32.8776°N, 96.6203°W)
Time: 03:54:39
(UTC+00:00)

Genesis I - Pass Details

Date: 17 June 2021
Orbit: 476 x 543 km, 64.5° (Epoch: 29 July)

Event Time Altitude Azimuth Distance (km) Brightness Sun altitude
Rises 02:19:45 0° 205° (SSW) 2,540 6.6 -8.5°
Reaches altitude 10° 02:21:51 10° 204° (SSW) 1,673 5.7 -8.8°
Maximum altitude 02:25:35 81° 117° (ESE) 508 3.0 -9.5°
Drops below altitude 10° 02:29:26 10° 31° (NNE) 1,722 5.9 -10.1°
Sets 02:31:38 0° 30° (NNE) 2,624 6.9 -10.5°
